Theta_e
351 350 351 349 348 348 348 349 352 355 356 355 355 357 356 352 358 353 351 349 347 345 350 351 354 354 358 357 355 352 352 354 355
349 349 351 350 349 348 348 349 353 354 357 355 357 357 358 355 352 360 355 349 350 356 348 353 352 353 355 358 355 352 353 357 355
346 349 351 352 350 349 348 349 352 354 357 357 357 358 359 359 355 353 361 356 349 348 356 348 355 355 357 354 356 354 352 355 358
340 347 351 353 352 350 349 349 351 353 356 359 359 359 358 360 360 357 354 361 355 347 353 356 349 351 358 355 356 355 354 353 358
337 344 349 353 352 351 350 349 350 352 355 359 360 361 361 360 362 361 357 357 360 350 352 352 357 357 356 358 358 356 356 358 358
335 342 347 352 353 352 351 350 349 351 352 357 360 361 362 362 361 363 362 359 356 359 353 353 353 356 360 359 357 358 359 356 357
335 342 346 350 353 352 352 351 350 350 352 353 359 361 363 363 363 363 363 363 360 356 359 358 357 355 357 361 359 358 357 357 356
340 340 346 349 351 352 353 352 351 351 351 353 355 362 363 364 364 364 363 363 364 363 358 360 360 359 360 359 362 359 358 357 359
338 340 344 342 346 350 352 354 353 353 352 353 354 358 362 364 365 365 364 365 364 365 364 361 361 362 360 361 362 362 360 359 360
332 331 332 337 339 343 351 354 355 355 355 354 354 355 358 363 364 365 365 365 366 365 366 366 363 363 363 362 362 362 363 362 361
333 336 336 333 338 336 339 353 356 356 356 357 356 356 357 357 363 364 365 365 365 366 366 366 367 365 364 364 363 362 363 363 363
343 343 344 344 345 345 344 342 341 358 358 358 360 359 360 359 362 363 364 364 365 365 365 365 365 366 366 366 365 365 363 364 364
340 341 342 346 346 345 344 343 342 350 358 358 358 360 362 363 362 364 364 365 365 366 366 365 365 366 366 366 366 366 366 365 364
339 340 340 342 345 349 349 344 343 346 345 351 360 358 356 359 360 363 365 365 366 366 366 366 366 366 366 367 367 366 367 366 366
334 338 339 341 342 345 348 352 345 344 350 344 343 355 360 359 359 360 364 366 367 368 367 367 367 367 368 367 367 368 367 367 367
332 333 339 340 341 347 349 357 352 348 348 354 359 345 359 359 359 359 362 363 367 369 368 368 368 368 368 368 368 368 368 368 368
330 334 336 339 342 347 358 362 363 363 364 360 354 355 360 364 365 365 365 363 365 369 370 369 369 368 368 367 367 368 367 367 367
324 325 335 335 342 344 356 357 360 360 361 362 367 359 366 368 367 367 368 366 368 369 368 369 369 369 368 368 367 366 362 365 365
322 321 320 334 337 343 353 354 355 355 355 358 360 368 368 370 368 367 368 366 353 358 365 367 367 367 368 359 360 358 356 356 356
321 322 321 333 334 342 345 355 353 353 353 355 358 357 367 364 366 365 368 368 361 342 342 349 350 353 355 353 352 355 355 353 352
Wind_Speed
31 27 26 28 28 31 36 37 41 39 41 41 42 41 44 44 32 36 35 31 29 31 27 27 28 29 27 27 23 22 21 20 19
32 28 29 29 28 33 38 37 42 44 40 40 40 40 39 42 44 36 38 39 32 21 27 27 29 29 32 31 29 24 26 23 23
25 28 31 29 27 31 39 40 42 43 40 41 42 41 39 40 43 41 32 36 37 34 24 31 21 32 36 37 34 28 27 27 25
20 24 28 28 26 34 41 42 37 41 40 40 39 39 37 33 34 37 38 32 38 39 32 25 32 26 31 38 37 32 29 29 26
16 23 25 27 27 29 33 37 36 40 40 40 40 39 37 37 34 33 37 39 36 36 38 38 28 27 25 32 35 33 32 30 30
10 20 21 25 26 23 25 35 37 38 39 39 39 37 37 35 35 35 35 37 40 38 41 41 38 34 28 32 37 36 36 35 35
9 15 19 23 23 23 25 35 37 37 38 39 37 39 38 37 37 37 38 37 37 40 39 41 40 41 39 35 38 40 39 37 37
10 9 20 21 23 22 23 31 37 39 41 41 41 39 40 41 39 39 37 37 36 38 39 38 43 39 41 41 40 42 43 40 41
11 9 10 10 9 18 22 30 35 37 37 40 41 40 41 38 39 38 40 37 38 37 38 39 36 42 40 40 41 42 43 43 39
10 10 10 9 9 8 11 25 33 35 38 39 41 41 40 39 40 40 40 40 37 40 39 36 40 39 42 41 43 44 44 47 42
10 11 10 10 11 9 5 14 30 34 32 34 38 38 37 39 39 40 39 39 40 39 38 38 38 40 41 42 44 46 46 47 48
13 11 8 7 15 17 20 20 7 28 32 32 33 35 33 39 38 38 38 40 39 38 36 37 38 38 38 41 43 42 46 45 48
16 14 13 13 20 18 18 16 16 3 21 30 29 33 34 37 38 37 38 39 39 37 38 38 35 37 39 39 41 38 38 43 42
13 13 16 24 24 19 18 15 13 9 4 2 23 35 38 33 36 40 41 37 35 35 35 33 33 34 34 35 36 33 33 39 43
12 11 15 23 20 21 26 23 16 10 6 7 5 14 26 34 37 38 33 36 33 31 31 31 30 28 29 31 30 31 32 36 42
9 9 11 18 18 20 30 27 19 14 13 5 4 13 16 32 34 36 34 31 30 28 27 27 25 25 24 23 26 27 31 36 36
8 8 10 16 20 21 17 23 16 11 12 10 11 13 14 16 29 31 31 31 30 25 22 23 22 21 22 22 24 27 29 31 33
7 11 16 19 17 22 18 11 14 17 18 18 18 17 17 18 24 28 28 24 17 23 24 24 23 23 21 22 21 22 17 19 26
6 11 21 18 19 20 27 8 11 13 15 17 21 15 12 15 19 22 24 23 14 5 20 23 24 24 26 13 14 15 14 10 8
15 17 19 20 19 21 27 11 5 7 10 14 16 16 12 14 16 18 24 24 21 18 17 18 14 8 11 10 7 11 14 13 13
Wind_Direction
179 182 193 182 183 183 185 178 178 183 187 190 193 197 202 207 206 213 212 216 220 222 221 215 215 215 213 214 212 206 204 212 212
177 187 192 180 183 183 185 180 180 184 187 192 194 197 200 205 212 210 214 217 218 227 221 219 226 224 216 215 218 211 205 211 217
185 177 177 177 180 182 184 186 184 184 187 191 195 198 201 204 209 213 213 218 221 222 229 222 220 224 218 214 216 214 210 212 220
192 174 174 174 178 182 182 186 182 184 187 191 195 199 202 205 208 213 214 217 221 221 226 225 230 232 221 215 213 215 215 218 221
181 177 172 170 176 181 181 182 184 184 188 190 194 197 199 204 206 208 212 216 218 223 220 225 224 232 220 218 217 216 215 217 219
163 167 167 169 174 179 179 183 185 187 190 191 193 195 199 203 206 207 211 214 217 219 223 225 227 229 223 218 218 218 217 219 220
173 145 159 171 174 178 180 183 184 189 190 194 191 194 198 202 205 208 211 212 215 218 221 225 226 230 228 223 218 220 222 223 223
144 148 163 166 178 180 181 182 186 190 192 192 193 193 199 204 205 207 211 213 213 217 219 222 227 226 229 229 228 221 222 224 223
75 68 126 117 145 179 182 182 187 189 192 194 194 198 202 203 204 205 209 212 213 215 218 219 222 225 226 226 227 226 224 223 220
93 87 85 88 98 125 154 180 185 187 193 194 196 202 204 203 204 204 207 210 210 213 216 216 219 223 224 227 228 228 227 225 222
94 71 56 56 56 37 87 158 187 193 190 189 195 203 204 205 203 205 207 209 211 213 214 216 218 221 224 226 230 229 228 229 227
66 64 63 61 60 46 34 44 195 190 191 193 191 201 200 203 203 203 205 209 212 213 214 217 221 223 225 227 232 232 229 228 230
42 40 35 23 18 26 12 12 16 171 185 191 198 199 201 202 202 204 205 209 211 212 214 218 220 225 227 230 236 235 233 230 230
39 36 25 19 15 5 342 338 348 3 38 179 215 211 214 211 211 212 213 210 209 209 212 216 221 226 229 233 238 237 236 233 232
23 25 20 14 9 348 340 324 314 310 287 302 288 243 227 221 218 219 215 214 208 206 208 212 219 225 232 236 239 239 238 237 236
15 5 22 12 2 342 333 330 312 286 278 297 295 248 239 231 227 225 216 214 210 203 204 210 216 222 230 235 238 243 243 244 246
355 358 12 3 2 347 339 18 31 27 5 326 295 276 257 232 220 214 214 213 215 205 202 210 217 220 227 234 239 243 244 243 246
345 344 355 8 358 345 321 4 13 9 3 356 341 278 258 231 216 205 203 201 204 209 211 210 211 220 221 226 229 234 237 238 244
338 335 347 351 356 340 336 10 17 4 350 344 338 308 255 213 198 198 193 184 159 171 213 217 226 231 231 212 226 193 204 217 235
339 340 347 337 335 326 323 328 7 333 333 329 330 327 273 231 221 204 193 190 177 137 113 129 127 151 168 169 203 234 257 268 262